User: anonymous   Login
Location: Unspecified
(0.0000°N, 0.0000°E)
Time: 07:02:52
(UTC+00:00)
Language:

SAUDISAT 3 - Orbit

View from above orbital plane
View from above orbital plane
View from above satellite
View from above satellite

Ground track
Ground track

The orbit data is extracted from the following two-line orbital elements,

1 31118U 07012B   18048.88764235 -.00000010  00000-0  61677-5 0  9992
2 31118  97.7533  34.5208 0014065 197.3790 162.6938 14.69088662581081
Epoch (UTC): 17 February 2018 21:18:12
Eccentricity: 0.0014065
inclination: 97.7533°
perigee height: 654 km
apogee height: 674 km
right ascension of ascending node: 34.5208°
argument of perigee: 197.3790°
revolutions per day: 14.69088662
mean anomaly at epoch: 162.6938°
orbit number at epoch: 58108

The dashed part of the orbit path shows where the satellite is in the earth's shadow,  

DLR